Wind_Speed
3 2 2 3 3 3 3 4 5 5 6 6 7 7 6 6 7 7 6 6 6 6 7 7 7 7 6 6 6 6 6 6 6 6 6 5 5 5 4 5 5 5 5
3 3 3 4 4 3 3 5 5 5 6 6 7 7 7 7 7 7 7 6 7 7 7 7 7 6 7 6 6 7 7 6 5 6 7 6 6 5 5 5 5 5 6
4 3 4 4 4 4 3 4 4 5 6 6 7 7 7 7 7 7 7 6 6 7 7 7 7 7 7 7 7 7 7 6 6 7 7 6 7 6 6 6 6 5 6
4 4 3 3 3 3 4 4 4 5 5 6 7 8 8 8 8 7 7 7 6 6 6 6 7 7 7 7 7 7 7 7 7 7 8 8 7 7 7 7 6 6 6
5 4 3 4 3 3 4 4 5 5 5 5 6 7 7 7 7 8 7 7 7 6 6 6 6 6 7 6 6 6 6 7 8 8 8 9 8 8 8 8 7 7 7
6 5 4 4 4 3 4 4 5 5 5 4 5 6 7 6 7 6 6 7 7 7 7 6 6 6 7 7 7 7 7 8 9 8 9 9 9 8 8 8 8 8 7
7 6 6 5 4 4 4 4 4 4 4 4 5 5 6 6 6 6 6 6 6 7 7 6 6 6 7 8 8 8 9 9 9 9 10 10 10 10 8 9 9 9 9
8 7 6 6 5 4 2 3 4 4 4 4 4 4 5 5 5 6 6 6 6 6 6 6 6 6 6 7 7 8 9 10 9 9 9 10 10 9 9 9 10 10 10
8 8 7 6 5 4 2 0 2 2 3 3 4 4 3 4 5 5 6 5 6 6 6 6 7 6 7 7 7 8 8 9 9 9 10 9 10 10 10 11 11 10 11
9 8 8 7 6 5 3 1 1 1 2 2 3 2 2 2 3 4 5 5 4 5 6 6 6 7 7 7 8 8 8 8 9 9 9 9 9 10 10 10 11 12 12
9 9 8 7 6 5 3 2 1 1 2 2 2 1 1 1 2 3 3 3 3 4 4 5 6 6 7 7 8 8 8 8 8 9 9 9 9 10 10 11 11 11 12
9 9 8 7 6 5 3 2 1 1 0 1 1 1 1 0 1 2 2 3 3 3 3 4 5 5 6 6 6 7 7 8 8 8 8 9 9 10 11 11 12 11 12
11 10 8 7 6 5 4 3 1 1 1 1 1 0 0 0 1 2 2 2 3 4 5 5 5 5 4 5 5 6 6 8 8 8 8 9 9 10 10 11 12 13 13
12 11 9 7 6 6 5 4 3 2 1 0 1 1 1 1 1 2 3 3 4 5 6 6 5 4 5 5 5 6 6 7 7 8 9 9 10 12 12 12 13 13 13
11 11 10 8 7 6 5 4 4 3 2 2 1 1 1 2 3 4 5 5 5 6 7 6 5 5 6 6 6 7 8 7 7 8 9 9 10 11 12 12 13 14 14
10 11 9 8 7 6 5 5 4 4 3 3 3 2 3 3 4 5 5 6 6 7 6 6 6 6 6 7 7 8 7 7 7 8 9 9 10 11 12 12 12 13 14
10 10 9 8 7 6 6 5 4 3 3 4 4 4 4 4 4 5 6 7 8 7 6 7 7 8 8 8 8 7 7 8 9 9 9 10 10 12 12 12 13 13 14
11 10 9 9 8 7 6 6 4 4 4 4 5 4 5 5 5 6 6 7 7 8 8 8 8 9 9 8 8 8 9 9 9 10 10 11 11 12 12 13 13 14 14
10 10 9 9 8 8 7 7 6 5 5 5 5 5 5 5 5 6 7 8 8 9 9 9 9 9 9 8 9 9 9 10 11 11 11 11 12 13 13 13 13 14 14
9 10 9 8 8 8 8 7 6 6 6 6 7 6 6 6 6 7 8 9 10 10 10 10 9 9 9 9 10 10 10 11 11 12 13 13 14 14 14 15 14 15 15
9 9 8 8 8 8 8 8 7 7 7 7 8 8 8 8 8 9 9 10 11 11 11 11 10 10 10 10 10 11 11 12 13 13 14 15 15 15 15 15 15 16 15
9 9 9 9 9 9 9 9 9 8 8 8 9 9 9 9 9 9 10 11 12 12 12 12 11 11 12 12 12 13 13 13 14 15 15 15 15 16 16 17 17 17 15
9 9 9 9 9 9 9 10 10 10 9 9 10 10 10 10 10 11 12 12 13 13 13 13 13 13 14 14 14 14 14 14 15 16 16 16 17 17 17 17 17 16 16
10 9 9 9 9 10 10 10 11 11 10 10 10 11 11 11 11 12 13 13 13 14 14 14 15 15 15 15 15 16 16 16 16 16 17 18 18 18 18 18 18 18 18
10 10 9 9 9 10 11 11 11 11 11 11 11 12 12 12 13 13 13 14 14 15 15 15 16 16 16 16 17 17 17 18 18 18 19 19 19 19 19 19 20 20 20
11 11 10 10 11 11 11 11 11 11 12 12 13 13 13 13 14 14 14 14 14 15 16 16 17 18 18 18 19 19 19 19 19 20 19 19 19 20 20 20 20 20 20
Wind_Direction
327 324 304 288 281 274 253 239 237 232 230 229 225 219 220 217 217 215 214 217 221 225 229 232 236 237 240 244 247 249 246 243 236 227 225 222 224 230 234 236 241 242 239
326 320 310 303 291 278 263 242 241 239 236 233 228 222 220 220 221 221 224 227 229 228 232 235 239 238 240 244 249 250 252 256 245 233 232 231 228 235 241 242 241 232 234
324 311 304 298 288 276 270 256 240 239 235 230 227 222 219 220 222 225 230 232 234 232 237 238 240 240 244 251 252 244 249 260 255 240 236 235 234 240 246 248 238 234 238
341 323 312 299 293 278 267 262 250 240 235 231 227 223 218 218 221 226 229 232 236 238 238 244 245 242 247 256 250 247 251 257 254 248 243 242 241 245 247 242 234 238 239
2 351 339 322 304 285 273 256 247 237 235 229 224 220 218 220 223 227 231 235 242 245 247 250 254 253 252 253 253 257 259 256 257 254 250 248 249 249 245 240 238 241 244
12 2 352 333 319 299 276 253 239 234 232 226 218 216 216 218 223 228 232 237 241 245 248 255 259 254 255 257 261 267 268 259 262 262 254 250 250 249 244 245 248 245 250
14 7 1 352 336 314 287 253 228 220 226 225 221 218 216 219 221 227 228 235 241 245 249 256 262 256 250 255 262 265 267 266 266 262 257 256 255 249 246 248 246 244 250
13 12 6 2 357 344 313 234 218 216 224 228 230 224 220 219 224 232 231 239 243 246 253 257 261 263 257 259 264 268 270 266 266 262 262 261 254 248 247 251 251 251 252
14 15 14 14 14 6 14 144 204 209 223 229 237 231 228 231 235 238 240 245 245 252 257 260 264 265 263 264 268 269 273 268 265 265 265 265 256 253 251 252 256 258 258
13 15 14 17 24 26 41 86 147 190 201 215 230 221 214 224 235 239 242 248 254 262 265 268 272 270 270 268 271 272 270 268 263 263 264 266 260 256 255 256 259 258 258
12 12 13 16 22 25 34 69 104 179 188 193 185 177 195 209 235 245 248 248 261 269 278 279 279 280 279 274 274 273 271 273 271 265 266 268 265 262 258 259 264 262 261
9 9 6 8 14 17 24 46 76 144 180 179 175 146 145 180 281 276 270 272 279 278 290 292 289 290 288 279 281 282 281 276 278 272 267 266 269 264 262 262 263 266 265
12 11 12 14 17 21 32 48 61 120 126 159 213 174 131 313 290 292 294 296 294 294 294 290 297 298 291 284 286 291 285 276 273 274 271 269 269 267 268 268 265 267 267
19 20 26 28 27 30 36 43 55 79 95 92 264 290 326 319 308 304 300 300 298 299 300 293 292 290 288 281 280 289 288 284 273 274 276 274 270 270 272 270 269 269 269
17 19 24 26 24 29 34 40 43 41 34 17 349 311 322 320 306 311 318 316 307 307 307 308 301 289 285 283 286 287 293 287 283 272 275 279 282 283 278 275 270 269 267
9 11 16 23 27 27 27 34 31 25 12 8 357 345 329 324 324 328 324 325 320 318 318 313 309 305 296 290 292 292 296 297 288 280 281 284 286 288 285 281 277 270 268
6 8 10 16 24 24 23 26 20 9 2 355 351 348 342 331 323 323 321 323 324 331 331 322 314 313 306 296 297 294 297 297 299 295 293 289 291 292 287 285 279 276 273
6 9 10 12 15 16 18 19 11 5 360 350 345 342 335 328 327 325 322 325 327 331 329 324 319 313 310 304 301 301 299 298 298 294 296 298 299 295 290 288 283 280 279
3 5 7 10 11 10 7 6 4 3 352 340 335 336 332 327 330 329 327 327 327 330 327 323 320 313 310 309 306 304 300 297 293 294 296 296 298 298 296 293 289 285 283
357 357 1 8 8 6 3 3 0 355 346 339 333 329 324 326 328 325 325 323 325 327 328 325 322 318 313 309 306 305 305 300 300 298 298 296 296 299 299 296 290 287 286
353 355 356 358 1 359 356 357 353 349 344 340 336 332 324 324 326 325 321 319 325 328 326 324 320 316 309 303 303 302 301 298 298 298 299 300 299 300 302 298 291 285 288
346 350 350 350 349 350 348 345 345 341 338 336 336 333 326 323 324 323 321 320 323 323 322 320 317 311 307 301 301 300 298 296 295 298 300 299 298 298 297 298 299 292 287
339 339 341 342 339 337 338 338 340 338 333 333 333 332 328 324 325 323 321 322 322 322 320 316 315 312 308 303 301 300 298 296 295 294 293 294 295 296 293 293 297 295 294
329 332 332 333 332 331 332 332 333 335 332 330 330 329 327 322 322 325 323 322 320 320 319 318 316 314 312 307 304 301 299 297 295 293 292 292 292 291 292 293 295 292 290
319 322 321 325 325 325 327 330 330 330 329 329 330 330 327 325 324 325 324 323 321 320 319 318 315 314 311 309 306 303 299 298 297 296 295 293 291 290 291 291 291 291 289
310 310 310 314 318 319 321 324 324 324 326 327 328 327 326 326 324 323 325 324 321 320 318 315 313 313 311 310 307 304 301 300 299 297 295 293 290 289 290 290 290 288 288
Height
5870 5870 5870 5869 5869 5869 5869 5869 5870 5870 5870 5871 5871 5872 5872 5873 5874 5875 5876 5876 5877 5878 5879 5880 5881 5881 5881 5882 5882 5883 5883 5884 5885 5885 5886 5887 5887 5888 5889 5889 5890 5891 5891
5870 5869 5869 5869 5869 5869 5869 5869 5869 5869 5870 5870 5870 5871 5872 5873 5873 5874 5875 5876 5877 5877 5878 5879 5880 5880 5881 5881 5882 5882 5883 5883 5884 5884 5885 5886 5887 5887 5888 5889 5889 5890 5891
5870 5869 5868 5868 5868 5868 5868 5868 5868 5869 5869 5869 5869 5870 5871 5872 5873 5874 5875 5876 5876 5877 5878 5879 5879 5880 5880 5881 5881 5882 5882 5883 5883 5884 5885 5885 5886 5886 5887 5888 5889 5889 5890
5869 5868 5868 5867 5867 5867 5867 5867 5867 5868 5868 5867 5868 5868 5870 5871 5873 5874 5875 5875 5876 5877 5877 5878 5878 5879 5880 5880 5880 5881 5882 5882 5883 5883 5884 5884 5885 5886 5886 5887 5888 5888 5889
5869 5868 5868 5867 5866 5866 5866 5866 5866 5867 5867 5866 5866 5868 5869 5871 5872 5873 5874 5875 5875 5876 5877 5877 5878 5878 5879 5879 5879 5880 5880 5881 5881 5882 5883 5883 5884 5885 5885 5886 5887 5887 5888
5870 5868 5867 5866 5865 5864 5864 5864 5865 5866 5866 5866 5867 5868 5869 5871 5871 5873 5873 5874 5875 5875 5876 5877 5877 5877 5878 5878 5878 5879 5879 5880 5880 5881 5881 5882 5883 5883 5884 5885 5885 5886 5887
5870 5869 5867 5866 5864 5863 5862 5862 5864 5865 5866 5867 5868 5868 5869 5870 5871 5872 5873 5873 5874 5875 5875 5875 5876 5876 5877 5877 5877 5878 5878 5878 5879 5879 5880 5880 5881 5882 5882 5883 5884 5884 5885
5871 5869 5867 5866 5864 5862 5859 5860 5863 5865 5866 5867 5868 5869 5869 5870 5871 5872 5872 5873 5873 5874 5874 5874 5875 5875 5875 5876 5876 5876 5876 5877 5877 5878 5878 5879 5879 5880 5881 5881 5882 5882 5883
5872 5870 5868 5866 5865 5863 5861 5862 5863 5865 5866 5867 5868 5869 5869 5870 5871 5871 5872 5872 5873 5873 5873 5873 5873 5874 5874 5874 5875 5875 5875 5875 5876 5876 5877 5877 5877 5878 5879 5879 5880 5881 5881
5872 5871 5869 5867 5866 5864 5864 5864 5865 5866 5867 5868 5868 5869 5870 5870 5871 5871 5871 5872 5872 5872 5872 5872 5872 5873 5873 5873 5873 5873 5873 5873 5874 5874 5875 5875 5876 5876 5877 5877 5878 5878 5879
5873 5871 5869 5868 5867 5866 5865 5865 5866 5867 5867 5868 5869 5869 5870 5870 5871 5871 5871 5871 5871 5872 5872 5872 5871 5871 5871 5871 5871 5871 5871 5871 5871 5872 5873 5873 5873 5874 5874 5875 5875 5876 5876
5874 5872 5870 5868 5867 5866 5865 5866 5867 5867 5868 5869 5869 5870 5870 5870 5871 5871 5871 5871 5871 5871 5871 5871 5870 5870 5870 5870 5870 5870 5869 5870 5870 5870 5870 5871 5871 5871 5872 5872 5873 5873 5874
5875 5872 5870 5869 5868 5867 5867 5867 5867 5868 5869 5870 5870 5870 5870 5871 5871 5871 5871 5871 5871 5870 5870 5870 5870 5869 5869 5869 5869 5868 5868 5868 5868 5869 5869 5869 5869 5869 5869 5870 5870 5871 5871
5876 5873 5871 5870 5869 5869 5868 5868 5868 5869 5870 5870 5871 5871 5871 5871 5871 5871 5871 5870 5870 5870 5869 5869 5869 5868 5868 5868 5868 5867 5867 5867 5867 5867 5866 5866 5867 5867 5867 5867 5867 5867 5867
5878 5876 5873 5872 5871 5871 5870 5870 5870 5870 5871 5871 5871 5871 5871 5871 5871 5871 5870 5870 5869 5869 5868 5868 5867 5867 5867 5867 5866 5866 5866 5865 5865 5865 5865 5865 5864 5864 5864 5864 5864 5864 5864
5879 5877 5875 5874 5873 5872 5872 5871 5872 5872 5872 5872 5871 5871 5871 5871 5870 5870 5869 5869 5868 5868 5867 5867 5866 5866 5865 5865 5865 5865 5864 5863 5863 5863 5863 5863 5862 5862 5861 5861 5861 5861 5861
5880 5879 5877 5876 5875 5874 5873 5873 5873 5873 5873 5872 5872 5871 5871 5871 5870 5870 5869 5868 5868 5867 5866 5865 5865 5864 5864 5863 5863 5863 5862 5862 5861 5861 5861 5860 5860 5859 5858 5858 5858 5857 5857
5881 5880 5878 5877 5876 5875 5875 5874 5874 5873 5873 5873 5872 5871 5871 5870 5870 5869 5869 5868 5867 5866 5865 5864 5863 5862 5862 5861 5861 5860 5860 5860 5859 5859 5858 5858 5857 5856 5856 5855 5854 5854 5854
5882 5881 5879 5878 5877 5877 5876 5875 5875 5874 5874 5873 5872 5871 5871 5870 5869 5869 5868 5867 5866 5865 5864 5862 5861 5860 5860 5859 5859 5858 5858 5857 5857 5856 5856 5855 5854 5853 5853 5852 5851 5850 5850
5883 5882 5880 5879 5878 5878 5877 5876 5875 5875 5874 5873 5872 5871 5870 5870 5869 5868 5867 5866 5865 5864 5862 5861 5860 5859 5858 5857 5856 5856 5855 5855 5854 5854 5853 5852 5851 5851 5849 5848 5847 5846 5846
5883 5882 5881 5880 5879 5879 5878 5877 5876 5875 5874 5873 5872 5871 5870 5869 5868 5867 5866 5865 5864 5862 5861 5859 5858 5857 5856 5855 5854 5854 5853 5852 5851 5850 5849 5848 5847 5847 5846 5845 5843 5843 5842
5884 5882 5881 5881 5880 5879 5878 5877 5876 5875 5874 5872 5871 5870 5869 5868 5867 5866 5865 5864 5862 5861 5859 5858 5857 5855 5854 5852 5851 5851 5850 5850 5848 5847 5846 5845 5844 5843 5842 5841 5840 5839 5838
5883 5882 5881 5880 5879 5879 5878 5877 5876 5874 5873 5872 5871 5869 5868 5867 5866 5864 5863 5862 5860 5859 5857 5856 5854 5853 5852 5850 5849 5848 5847 5846 5845 5844 5843 5841 5841 5840 5839 5837 5835 5833 5834
5883 5882 5881 5880 5879 5878 5877 5876 5875 5874 5872 5871 5870 5868 5867 5865 5864 5863 5861 5860 5858 5857 5855 5853 5852 5850 5849 5847 5846 5844 5843 5842 5841 5840 5839 5838 5837 5836 5835 5833 5832 5831 5830
5881 5881 5880 5879 5878 5877 5876 5875 5874 5872 5871 5870 5868 5867 5865 5864 5863 5861 5859 5858 5856 5854 5852 5850 5849 5847 5845 5844 5842 5841 5839 5838 5836 5836 5835 5833 5832 5831 5830 5829 5828 5827 5826
5880 5879 5878 5878 5877 5876 5875 5874 5873 5871 5870 5869 5867 5866 5864 5862 5861 5859 5857 5855 5854 5852 5850 5848 5846 5844 5842 5840 5838 5837 5835 5833 5832 5830 5829 5828 5827 5826 5825 5824 5824 5823 5822